Hopewell, New Jersey, United States (08525)
Lat: 40.39N, Lon: 74.76W
Wx Zone: NJZ015
Local Info
Past Weather Observations for Saturday, September 13, 2014

NOTE: This archive is for the closest National Weather Service station to Hopewell. Information may differ from the station used for current weather conditions.

Click here for Long-term Archive

Time Weather Temperature Dewpoint Humidity Pressure Winds Precip Visibility
23:53
Partly Cloudy
54°F / 12°C 52°F / 11°C 94% 30.18 in
(1022 mb)
NW 3.5 mph
(NW 6 kph)
-
22:53
Partly Cloudy
55°F / 13°C 54°F / 12°C 94% 30.18 in
(1022 mb)
NW 3.5 mph
(NW 6 kph)
-
22:23
Partly Cloudy
55°F / 13°C 54°F / 12°C 94% 30.15 in
(1021 mb)
Calm -
21:53
Clear
57°F / 14°C 55°F / 13°C 94% 30.15 in
(1021 mb)
NNW 3.5 mph
(NNW 6 kph)
-
20:53
Partly Cloudy
61°F / 16°C 57°F / 14°C 88% 30.15 in
(1021 mb)
NW 3.5 mph
(NW 6 kph)
-
19:53
Overcast
63°F / 17°C 61°F / 16°C 94% 30.15 in
(1021 mb)
NW 3.5 mph
(NW 6 kph)
-
18:53
Overcast
64°F / 18°C 63°F / 17°C 94% 30.12 in
(1020 mb)
Calm -
18:44
Overcast
64°F / 18°C 61°F / 16°C 88% 30.12 in
(1020 mb)
Calm -
18:35
Overcast
64°F / 18°C 61°F / 16°C 88% 30.12 in
(1020 mb)
N 3.5 mph
(N 6 kph)
-
18:23
Overcast
64°F / 18°C 61°F / 16°C 88% 30.12 in
(1020 mb)
N 4.6 mph
(N 7 kph)
-
18:15
Overcast
64°F / 18°C 63°F / 17°C 94% 30.12 in
(1020 mb)
NNW 3.5 mph
(NNW 6 kph)
-
18:08
Overcast
64°F / 18°C 61°F / 16°C 88% 30.12 in
(1020 mb)
NNW 4.6 mph
(NNW 7 kph)
-
17:53
Overcast
64°F / 18°C 63°F / 17°C 94% 30.09 in
(1019 mb)
NW 3.5 mph
(NW 6 kph)
-
17:46
Overcast
64°F / 18°C 61°F / 16°C 88% 30.09 in
(1019 mb)
NW 3.5 mph
(NW 6 kph)
-
16:53
Overcast
64°F / 18°C 63°F / 17°C 94% 30.09 in
(1019 mb)
Calm -
16:51
Overcast
64°F / 18°C 63°F / 17°C 94% 30.09 in
(1019 mb)
Calm -
16:34
Overcast
64°F / 18°C 63°F / 17°C 94% 30.09 in
(1019 mb)
Calm -
16:25
Overcast
64°F / 18°C 63°F / 17°C 94% 30.09 in
(1019 mb)
Calm -
16:05
Overcast
64°F / 18°C 63°F / 17°C 94% 30.09 in
(1019 mb)
Calm -
15:53
Overcast
64°F / 18°C 63°F / 17°C 94% 30.09 in
(1019 mb)
Calm -
15:30
Overcast
64°F / 18°C 63°F / 17°C 94% 30.09 in
(1019 mb)
Calm -
14:53
Overcast
64°F / 18°C 61°F / 16°C 88% 30.09 in
(1019 mb)
Calm -
13:53
Overcast
64°F / 18°C 63°F / 17°C 94% 30.09 in
(1019 mb)
Calm -
13:49
Overcast
64°F / 18°C 61°F / 16°C 88% 30.09 in
(1019 mb)
Calm -
13:36
Overcast
64°F / 18°C 63°F / 17°C 94% 30.09 in
(1019 mb)
Variable 3.5 mph
(Variable 6 kph)
-
12:53
Overcast
68°F / 20°C 57°F / 14°C 69% 30.09 in
(1019 mb)
Calm -
11:53
Overcast
68°F / 20°C 59°F / 15°C 73% 30.12 in
(1020 mb)
Variable 4.6 mph
(Variable 7 kph)
-
10:53
Overcast
66°F / 19°C 55°F / 13°C 68% 30.12 in
(1020 mb)
Variable 4.6 mph
(Variable 7 kph)
-
09:53
Overcast
63°F / 17°C 54°F / 12°C 73% 30.15 in
(1021 mb)
ENE 5.8 mph
(ENE 9 kph)
-
09:40
Overcast
63°F / 17°C 54°F / 12°C 73% 30.15 in
(1021 mb)
Calm -
08:53
Overcast
63°F / 17°C 52°F / 11°C 68% 30.15 in
(1021 mb)
NE 8.1 mph
(NE 13 kph)
-
07:53
Overcast
63°F / 17°C 52°F / 11°C 68% 30.15 in
(1021 mb)
Calm -
07:32
Overcast
61°F / 16°C 52°F / 11°C 72% 30.15 in
(1021 mb)
Variable 4.6 mph
(Variable 7 kph)
-
06:53
Overcast
61°F / 16°C 52°F / 11°C 72% 30.15 in
(1021 mb)
Calm -
05:53
Overcast
59°F / 15°C 48°F / 9°C 68% 30.18 in
(1022 mb)
Calm -
05:43
Overcast
59°F / 15°C 48°F / 9°C 68% 30.18 in
(1022 mb)
NE 4.6 mph
(NE 7 kph)
-
05:25
Mostly Cloudy
59°F / 15°C 48°F / 9°C 68% 30.15 in
(1021 mb)
NE 6.9 mph
(NE 11 kph)
-
05:10
Mostly Cloudy
59°F / 15°C 48°F / 9°C 68% 30.15 in
(1021 mb)
NE 5.8 mph
(NE 9 kph)
-
04:53
Partly Cloudy
59°F / 15°C 48°F / 9°C 68% 30.15 in
(1021 mb)
NE 5.8 mph
(NE 9 kph)
-
03:53
Clear
57°F / 14°C 48°F / 9°C 72% 30.15 in
(1021 mb)
NE 5.8 mph
(NE 9 kph)
-
02:53
Clear
59°F / 15°C 46°F / 8°C 63% 30.15 in
(1021 mb)
NE 5.8 mph
(NE 9 kph)
-
01:53
Clear
55°F / 13°C 48°F / 9°C 77% 30.15 in
(1021 mb)
Variable 3.5 mph
(Variable 6 kph)
- 10SM
00:53
Clear
59°F / 15°C 48°F / 9°C 68% 30.15 in
(1021 mb)
NW 4.6 mph
(NW 7 kph)
- 10SM
Time Weather Temperature Dewpoint Humidity Pressure Winds Precip Visibility


Weather for websites

WeatherForYou.com, LLC is not responsible for any damages or problems caused by this service. Current weather conditions are obtained from the closest station including government and personal stations which may have varying degrees of accuracy. Weather forecasts are derived from the NOAA NDFD. Like all things, this site belongs to Jesus Christ... He just trusts me to maintain it. If you have any questions or comments email webmaster@weatherforyou.com

Copyright © 2014, WeatherForYou.com LLC. All rights reserved.